Location: *
(51.4660°N, 0.3360°W)
Time: 12:07:08
(UTC+00:00)

Cosmos 2219 Rocket - Pass Details

Date: 19 September 2019
Orbit: 829 x 845 km, 71.0° (Epoch: 17 October)

Event Time Altitude Azimuth Distance (km) Brightness Sun altitude
Rises 20:00:27 0° 321° (NW) 3,383 6.5 -17.8°
Reaches altitude 10° 20:03:21 10° 308° (NW) 2,446 5.8 -18.2°
Maximum altitude 20:07:36 23° 258° (WSW) 1,719 4.4 -18.8°
Drops below altitude 10° 20:11:50 10° 208° (SSW) 2,437 4.6 -19.4°
Sets 20:14:44 0° 194° (SSW) 3,369 5.2 -19.8°
